User: anonymous   Login
Location: Unspecified
(0.0000°N, 0.0000°E)
Time: 23:51:50
(UTC+00:00)
Language:

TBA - TO BE ASSIGNED - Orbit

View from above orbital plane
View from above orbital plane
View from above satellite
View from above satellite

Ground track
Ground track

The orbit is defined by the following mean orbital elements,

1 67801U          26145.47196823 +.00000000 +00000-0 +72092-3 0 00006
2 67801  97.2871 333.4957 0002016  97.2558 262.8914 15.33452338    06
Epoch (UTC): 25 May 2026 11:19:38
Eccentricity: 0.0002016
inclination: 97.2871°
perigee height: 464 km
apogee height: 467 km
right ascension of ascending node: 333.4957°
argument of perigee: 97.2558°
revolutions per day: 15.33452338
mean anomaly at epoch: 262.8914°

The dashed part of the orbit path shows where the satellite is in the earth's shadow,  

DLR